Flag for U.S.A. Weather past 2 weeks in Knoxville, Tennessee, U.S.A.

59 °F

Light rain. Fog.

Feels Like: 59 °F
Forecast: 55 / 60 °F
Wind: 5 mph from Northeast

Location: McGhee Tyson Airport

Current Time: Nov 29, 2015 at 4:53:01 PM

Latest Report: Nov 29, 2015 at 3:53 PM

Visibility: 2 mi

Pressure: 30.06 "Hg

Humidity: 96%

Dew point: 58 °F

Location of KnoxvilleLocation

Historic Weather in Knoxville — Graph


Knoxville temperature yesterday

Maximum temperature yesterday: 65 °F (at 2:53 PM)
Minimum temperature yesterday: 51 °F (at 7:53 AM)
Average temperature yesterday: 57 °F

Past Weeks' High & Low Weather Summary

High73 °F (Nov 18, 11:53 AM)97% (Nov 18, 5:53 PM)30.65 "Hg (Nov 18, 5:53 PM)
Low25 °F (Nov 23, 7:53 AM)18% (Nov 14, 3:53 PM)29.84 "Hg (Nov 18, 2:53 PM)
Average49 °F66%30.26 "Hg
* Reported Nov 14 3:53 PM — Nov 29 3:02 PM, Knoxville, Weather by CustomWeather, © 2015

Note: Actual official high and low records may vary slightly from our data, if they occured in-between our weather recording intervals... More about our weather records


Knoxville weather history for previous 24 hours

Time TempWeatherWind HumidityBarometerVisibility
3:02 PM
Sun, Nov 29
59 °FLight rain. Fog.5 mph96%30.08 "Hg2 mi
2:04 PM59 °FLight rain. Fog.5 mph96%30.11 "Hg2 mi
1:53 PM59 °FLight rain. Fog.No wind96%30.11 "Hg2 mi
1:04 PM59 °FRain. Fog.No wind93%30.14 "Hg4 mi
1:00 PM59 °FRain. Fog.No wind96%30.14 "Hg3 mi
11:53 AM59 °FFog.No wind93%30.16 "Hg4 mi
10:53 AM59 °FLight rain. Fog.5 mph93%30.18 "Hg6 mi
9:53 AM58 °FLight rain. Cloudy.3 mph93%30.20 "Hg10 mi
9:00 AM56 °FMostly cloudy.No wind93%30.21 "Hg9 mi
7:53 AM55 °FDrizzle. Fog.7 mph93%30.19 "Hg5 mi
6:53 AM55 °FLight rain. Fog.3 mph93%30.19 "Hg6 mi
5:53 AM56 °FOvercast.No wind84%30.17 "Hg10 mi
4:53 AM55 °FOvercast.No wind87%30.16 "Hg10 mi
3:53 AM55 °FMostly cloudy.No wind90%30.17 "Hg10 mi
2:53 AM56 °FMostly cloudy.No wind87%30.17 "Hg10 mi
1:53 AM55 °FOvercast.5 mph90%30.17 "Hg10 mi
12:53 AM56 °FOvercast.No wind87%30.17 "Hg10 mi
11:53 PM
Sat, Nov 28
56 °FOvercast.No wind87%30.19 "Hg10 mi
10:53 PM58 °FOvercast.No wind81%30.20 "Hg10 mi
9:53 PM58 °FOvercast.3 mph81%30.20 "Hg10 mi
8:53 PM60 °FOvercast.3 mph75%30.20 "Hg10 mi
7:53 PM61 °FOvercast.No wind72%30.21 "Hg10 mi
6:53 PM60 °FPassing clouds.No wind72%30.22 "Hg10 mi
5:53 PM62 °FOvercast.No wind67%30.21 "Hg10 mi
4:53 PM63 °FMostly cloudy.3 mph68%30.20 "Hg10 mi
Weather by CustomWeather, © 2015

See weather overviewHow to use our weather pages